Tracking 19149 objects as of 21-Apr-2018
HD Live streaming from Space Station
objects crossing your sky now

FENGYUN 1C DEB

Track FENGYUN 1C DEB now!
10-day predictions


NORAD ID: 31513
Int'l Code: 1999-025BXC
Perigee: 825.9 km
Apogee: 881.6 km
Inclination: 99.0 °
Period: 101.9 minutes
Semi major axis: 7224 km
RCS: 0.0086 m2 (small)
Launch date: May 10, 1999
Source: People's Republic of China (PRC)
Launch site: Taiyaun Space Center, China (TSC)

Note: This is SATELLITE DEBRIS
aabbcc
Your satellite tracking list
Your tracking list is empty




NASA's NSSDC Master Catalog

Two Line Element Set (TLE):
1 31513U 99025BXC 18110.57636352 +.00000988 +00000-0 +54267-3 0  9998
2 31513 098.9816 156.6951 0038564 178.9663 181.1595 14.13743326332681
Source of the keplerian elements: AFSPC